Location: Augirein
(42.9320°N, 0.9181°E)
Time: 18:57:53
(UTC+00:00)

Resurs 1-4 Rocket - Pass Details

Date: 20 June 2021
Orbit: 800 x 813 km, 98.6° (Epoch: 02 August)

Event Time Altitude Azimuth Distance (km) Brightness Sun altitude
Rises 02:55:03 0° 359° (N) 3,343 6.1 -12.1°
Reaches altitude 10° 02:57:58 10° 343° (NNW) 2,408 5.0 -11.8°
Maximum altitude 03:01:41 20° 299° (WNW) 1,820 3.8 -11.3°
Drops below altitude 10° 03:05:23 10° 254° (WSW) 2,401 4.1 -10.9°
Enters shadow 03:05:29 10° 253° (WSW) 2,427 4.1 -10.8°
